Preview of NWS' New Version of Forecast
This preview is not operational and should not be used for support decisions.

Regional Weather Roundup (RWR)

Issued by National Weather Service (NWS)

                            
000
ASUS42 KTBW 160218
RWRFL 
FLORIDA REGIONAL WEATHER ROUNDUP
NATIONAL WEATHER SERVICE TAMPA BAY RUSKIN FL
1000 PM EDT SUN SEP 15 2019

NOTE: "FAIR" INDICATES FEW OR NO CLOUDS BELOW 12,000 FEET WITH NO
SIGNIFICANT WEATHER AND/OR OBSTRUCTIONS TO VISIBILITY.

FLZ001>010-012>015-112-114-115-160300-
PANHANDLE FLORIDA
  
CITY           SKY/WX    TMP DP  RH WIND       PRES   REMARKS
PENSACOLA      FAIR      81  75  82 CALM      30.00R                  
PENSACOLA NAS  FAIR      76  74  93 CALM      29.99R                  
MILTON NAS     FAIR      75  32  20 E3        30.01R                  
CRESTVIEW      FAIR      77  68  73 CALM      30.02R                  
DUKE FIELD     FAIR      79  67  65 CALM      30.01R                  
VALPARAISO     FAIR      86  65  49 NE5       30.00R                  
MARY ESTHER    PTCLDY    84  67  57 CALM      29.98R                  
TRI COUNTY     FAIR      77  69  76 CALM      30.02R                  
PANAMA CITY    FAIR      79  70  74 CALM      29.99R                  
TYNDALL AFB    FAIR      83  76  79 CALM      30.00R                  
APALACHICOLA   FAIR      81  75  82 NW3       29.99R                  

STATION/POSITION SKY/WX   TEMP    WIND        PRES    WAVE   SWELL
                          AIR SEA DIR/SP/G            HT/PER HT/PER
                          (F)     (DEG/KT/KT) (MB)    (FT/S) (FT/S)
30.1N   87.6W              85 86  100/  6/  6 1015.6R   3/ 7   3/ 7
29.2N   88.2W              84     110/ 14/ 17 1015.6R
28.8N   86.0W                 84  130/  8/ 10 1015.3F   3/ 6   3/ 6
PANAMA CITY BEAC           85 86  170/  5/  6 1016.3R
TOWER C                    85     110/ 10/ 10 1015.8R
28.5N   84.5W              85      50/ 10/ 12 1015.5S   2/ 5   2/ 5

$$
FLZ011-016>038-118-127-128-134-139-239-160300-
NORTH FLORIDA
  
CITY           SKY/WX    TMP DP  RH WIND       PRES   REMARKS
MARIANNA       FAIR      80  70  71 CALM      29.99R                  
TALLAHASSEE    FAIR      84  73  69 N3        30.00R                  
PERRY          FAIR      82  75  80 CALM      30.00R                  
LIVE OAK       CLEAR     79  72  78 CALM      30.00R                  
CROSS CITY       N/A     77  74  89 CALM      30.00R                  
LAKE CITY      FAIR      73  72  94 CALM      30.00S                  
GAINESVILLE    FAIR      78  73  84 N6        30.00S                  
WILLISTON      FAIR      76  74  93 NE3       29.98S                  
PALATKA        CLOUDY    75  73  94 NW6       29.97S                  
MAYPORT NAS    MOCLDY    83  76  79 NE18      29.96R                  
JACKSONVILLE   MOCLDY    78  73  84 N5        29.97R                  
JAX NAS        MOCLDY    82  74  76 N13       29.98R                  
JAX CECIL      NOT AVBL                                               
FERNANDINA BEA MOCLDY    81  76  85 NE9G20    29.98R                  
ST AUGUSTINE   MOCLDY   N/A N/A N/A N12       29.97R                  
PALM COAST     RAIN      80  76  85 N8        29.94S                  

STATION/POSITION SKY/WX   TEMP    WIND        PRES    WAVE   SWELL
                          AIR SEA DIR/SP/G            HT/PER HT/PER
                          (F)     (DEG/KT/KT) (MB)    (FT/S) (FT/S)
SHELL POINT      NOT AVBL
KEATON BEACH               80     100/  3/  4 1016.0R
CEDAR KEY                  80      40/  5/  6 1015.5R
FERNANDINA                 86 84   20/  6/ 16 1015.7R
30.7N   81.3W                 83                N/A     7/ 9   2/11
MAYPORT                    82 84   30/ 14/ 19 1015.2R
31.4N   80.9W              82 83   50/ 17/ 21 1014.3R   7/ 6   3/10
ST AUGUSTINE               83 84  360/ 19/ 23 1014.3R

$$
FLZ040-043>046-052-053-057-058-063-144-160300-
INTERIOR CENTRAL FLORIDA
  
CITY           SKY/WX    TMP DP  RH WIND       PRES   REMARKS
OCALA          FAIR      79  75  87 N6        29.98R                  
LEESBURG       FAIR      81  73  76 N7        29.95F                  
SANFORD        FAIR      80  75  84 N12       29.93S                  
ORLANDO EXEC   FAIR      81  74  79 NW7       29.93F                  
ORLANDO INTL   MOCLDY    80  73  79 N14       29.92F                  
KISSIMMEE      FAIR      82  75  79 N9        29.94S                  
WINTER HAVEN   FAIR      81  74  79 N5        29.96R                  
LAKELAND       PTCLDY    79  75  89 N7        29.96R                  
BARTOW           N/A     82  73  74 N7        29.94R                  
SEBRING        FAIR      77  76  96 W5        29.94R                  
OKEECHOBEE       N/A     77  73  88 NW5       29.93R                  

$$
FLZ041-047-054-059-064-141-147-160300-
EAST CENTRAL FLORIDA
  
CITY           SKY/WX    TMP DP  RH WIND       PRES   REMARKS
DAYTONA BEACH  MOCLDY    81  75  82 N8        29.93F                  
DELAND         FAIR      79  75  89 N9        29.93F                  
NEW SMYRNA BEA MOCLDY    82  75  78 N12       29.94S                  
JFK SPACE CTR  CLEAR     82  77  86 N10       29.90S                  
CAPE CANAVERAL FAIR      82  80  94 N16G22    29.88S                  
PATRICK AFB    FAIR      82  79  91 NW16      29.90S                  
MELBOURNE      FAIR      81  74  79 NW9       29.90S                  
VERO BEACH     FAIR      81  74  79 NW8       29.91R                  
FT PIERCE      FAIR      78  74  87 NW6       29.91R                  
STUART         FAIR      79  73  83 W6        29.92R                  

STATION/POSITION SKY/WX   TEMP    WIND        PRES    WAVE   SWELL
                          AIR SEA DIR/SP/G            HT/PER HT/PER
                          (F)     (DEG/KT/KT) (MB)    (FT/S) (FT/S)
28.5N   80.2W              83 85  330/ 21/ 27 1011.7F  10/ 9   7/ 9
28.9N   78.5W              80 81  320/ 29/ 39 1004.7R  14/10
TRIDENT PIER               82 84  330/ 12/ 18 1013.9S
28.4N   80.5W                 83                N/A     5/10   2/11
27.5N   80.2W                 84                N/A     6/10   3/11

$$
FLZ050-056-061-142-242-148-248-149-249-151-251-155-255-
160-260-160300-
WEST CENTRAL FLORIDA
  
CITY           SKY/WX    TMP DP  RH WIND       PRES   REMARKS
CRYSTAL RIVER  FAIR      79  73  83 N5        29.97S                  
INVERNESS      FAIR      79  77  94 N3        29.97S                  
BROOKSVILLE    FAIR      80  74  81 CALM      29.98R                  
CLEARWATER AIR MOCLDY    79  75  89 CALM      29.96S                  
ST PETE CLEARW MOCLDY    81  77  88 NW3       29.96R                  
TAMPA INTL     MOCLDY    81  77  88 NW3       29.96S                  
TAMPA EXEC     FAIR      75  75 100 CALM      29.97R                  
PLANT CITY     FAIR      77  77 100 NW3       29.98S                  
MACDILL AFB    CLOUDY    79  77  92 CALM      29.95S                  
PETER O KNIGHT FAIR     N/A N/A N/A CALM      29.96S                  
ST PETERSBURG  FAIR      81  75  82 MISG      29.94R                  
SARASOTA       FAIR      82  74  76 CALM      29.93S                  
VENICE         FAIR      81  75  83 CALM      29.96R                  

STATION/POSITION SKY/WX   TEMP    WIND        PRES    WAVE   SWELL
                          AIR SEA DIR/SP/G            HT/PER HT/PER
                          (F)     (DEG/KT/KT) (MB)    (FT/S) (FT/S)
27.3N   84.2W                 85                N/A     3/ 5
CLEARWATER BEACH           81 86  190/  2/  3 1014.8R
MIDDLE TAMPA BAY           81      20/  4/  5 1014.6R
VENICE                     80 86   10/  4/  4 1014.1R

$$
FLZ066-069-070-075>078-162-262-165-265-160300-
SOUTHWEST FLORIDA AND KEYS
  
CITY           SKY/WX    TMP DP  RH WIND       PRES   REMARKS
PUNTA GORDA    FAIR      77  77 100 NE3       29.96R                  
FT MYERS       FAIR      79  71  76 CALM      29.94R                  
SOUTHWEST INTL FAIR      79  72  79 W3        29.94S                  
NAPLES         FAIR      85  77  77 NW6       29.95R HX  95           
MARCO ISLAND     N/A    N/A N/A N/A NW5       29.96R                  
IMMOKALEE      FAIR      79  73  83 VRB3      29.92S                  
MARATHON       FAIR      85  76  74 W8        29.97R                  
KEY WEST NAS   MOCLDY    86  76  71 NW6       29.97R HX  96           
KEY WEST INTL  FAIR      85  77  77 W5        29.98R HX  95           

STATION/POSITION SKY/WX   TEMP    WIND        PRES    WAVE   SWELL
                          AIR SEA DIR/SP/G            HT/PER HT/PER
                          (F)     (DEG/KT/KT) (MB)    (FT/S) (FT/S)
NAPLES                     84 88  340/  9/ 11 1014.1R
26.0N   85.6W              85 87   60/  4/  8 1014.5R   4/ 7   3/ 7
DRY TORTUGAS               85     320/  3/  4 1015.2R
SOMBRERO KEY               85     290/  9/ 12 1015.1
LONG KEY                   86                 1013.9

$$
FLZ067-068-071>074-168-172>174-160300-
SOUTHEAST FLORIDA 
  
CITY           SKY/WX    TMP DP  RH WIND       PRES   REMARKS
W PALM BEACH   MOCLDY    83  75  77 W7        29.92R                  
BOCA RATON     PTCLDY    84  77  79 W9        29.93R                  
FT LAUDER-EXEC MOCLDY    82  76  81 W7        29.92R                  
FT LAUDERDALE  FAIR      83  73  72 W6        29.92R                  
PEMBROKE PINES MOCLDY    85  73  67 W8        29.94R                  
OPA LOCKA      FAIR      80  77  90 W3        29.94R                  
MIAMI          LGT RAIN  83  75  77 N6        29.94R                  
WEST KENDALL   FAIR      83  78  85 W9        29.94R                  
HOMESTEAD      FAIR      83  78  84 SW7       29.94R                  

STATION/POSITION SKY/WX   TEMP    WIND        PRES    WAVE   SWELL
                          AIR SEA DIR/SP/G            HT/PER HT/PER
                          (F)     (DEG/KT/KT) (MB)    (FT/S) (FT/S)
VIRGINIA KEY               86 87  240/ 11/ 13 1013.1R
LAKE WORTH                 84 85  290/  7/ 10 1014.3R
FOWEY ROCKS                85 85  260/ 19/ 21 1014.0R
SETTLEMENT POINT           84     300/ 16/ 18 1012.6R

$$